Topeka, KS

4:46 AM CST on December 06, 2019 (GMT -0600)
Billard Municipal

Weather History for KTOP - November, 2019

Change the Weather History Date:

Friday, November 15, 2019

  Actual Average Record
Temperature  
Mean Temperature 41 °F 44 °F  
Max Temperature 59 °F 55 °F 78 °F (1950)
Min Temperature 23 °F 33 °F 9 °F (1940)
Degree Days  
Heating Degree Days 24 21  
Month to date heating degree days 374 262  
Since 1 July heating degree days 785 618  
Cooling Degree Days 0 0  
Month to date cooling degree days 0 0  
Year to date cooling degree days 1609 1420  
Moisture  
Dew Point 26 °F    
Average Humidity 57    
Maximum Humidity 81    
Minimum Humidity 33    
Precipitation  
Precipitation 0.00 in 0.06 in 4.66 in (1964)
Month to date precipitation 0.02 1.05  
Year to date precipitation 45.32 34.31  
Snow  
Snow 0.00 in 0.00 in 3.00 in (1932)
Month to date snowfall 0.3 0.2  
Year to date snowfall 20.3 11.8  
Since 1 July snowfall 1.8 0.5  
Snow Depth 0.00 in    
Sea Level Pressure  
Sea Level Pressure 30.34 in    
Wind  
Wind Speed 5 mph (SE)    
Max Wind Speed 15 mph    
Max Gust Speed 20 mph    
Visibility 10 miles    
Events      
T = Trace of Precipitation, MM = Missing Value Source: NWS Daily Summary

Daily Weather History Graph

Daily Weather History Graph

Search for Another Location

Airport or City:

Astronomy

Nov. 15, 2019 Rise Set
Actual Time 7:05 AM CST 5:08 PM CST
Civil Twilight 6:36 AM CST 5:36 PM CST
Nautical Twilight 6:04 AM CST 6:09 PM CST
Astronomical Twilight 5:32 AM CST 6:40 PM CST
Moon 7:45 PM CST (11/15) 10:01 AM CST (11/15)
Length of Visible Light 11h 00m
Length of Day
10h 03m
Waning Gibbous, 90% of the Moon is Illuminated
Nov 15
Waning Gibbous
Nov 19
Last Quarter
Nov 26
New
Dec 4
First Quarter
Dec 11
Full

Hourly Weather History & Observations

Time (CST) Temp. Windchill Dew Point Humidity Pressure Visibility Wind Dir Wind Speed Gust Speed Precip Events Conditions
12:53 AM 27.0 °F - 19.9 °F 75% 30.40 in 10.0 mi Calm Calm - N/A   Clear
1:53 AM 25.0 °F - 18.0 °F 75% 30.40 in 10.0 mi Calm Calm - N/A   Clear
2:53 AM 25.0 °F - 19.9 °F 81% 30.40 in 10.0 mi Calm Calm - N/A   Clear
3:53 AM 24.1 °F - 19.0 °F 81% 30.40 in 10.0 mi Calm Calm - N/A   Clear
4:53 AM 24.1 °F - 19.9 °F 84% 30.40 in 9.0 mi Calm Calm - N/A   Clear
5:53 AM 24.1 °F - 19.0 °F 81% 30.40 in 9.0 mi Calm Calm - N/A   Clear
6:53 AM 24.1 °F - 19.0 °F 81% 30.40 in 10.0 mi Calm Calm - N/A   Clear
7:53 AM 26.1 °F - 21.9 °F 84% 30.41 in 8.0 mi Calm Calm - N/A   Clear
8:53 AM 33.1 °F 30.0 °F 27.0 °F 78% 30.42 in 10.0 mi East 3.5 mph - N/A   Clear
9:53 AM 41.0 °F - 30.0 °F 65% 30.40 in 10.0 mi Calm Calm - N/A   Clear
10:53 AM 51.1 °F - 30.9 °F 46% 30.39 in 10.0 mi Variable 6.9 mph - N/A   Clear
11:53 AM 55.0 °F - 30.0 °F 38% 30.36 in 10.0 mi SSE 9.2 mph - N/A   Clear
12:53 PM 57.0 °F - 30.0 °F 36% 30.34 in 10.0 mi South 9.2 mph - N/A   Clear
1:53 PM 59.0 °F - 30.9 °F 35% 30.30 in 10.0 mi SSE 12.7 mph - N/A   Clear
2:53 PM 59.0 °F - 30.9 °F 35% 30.29 in 10.0 mi SE 12.7 mph - N/A   Clear
3:53 PM 57.9 °F - 30.9 °F 36% 30.28 in 10.0 mi SE 11.5 mph - N/A   Clear
4:53 PM 54.0 °F - 30.9 °F 41% 30.27 in 10.0 mi SE 9.2 mph - N/A   Clear
5:53 PM 46.0 °F 41.9 °F 30.0 °F 54% 30.27 in 10.0 mi SE 8.1 mph - N/A   Clear
6:53 PM 41.0 °F 37.1 °F 28.9 °F 62% 30.29 in 10.0 mi SE 5.8 mph - N/A   Clear
7:53 PM 42.1 °F 39.2 °F 28.9 °F 60% 30.30 in 10.0 mi ESE 4.6 mph - N/A   Clear
8:53 PM 37.9 °F - 28.0 °F 68% 30.30 in 10.0 mi Calm Calm - N/A   Clear
9:53 PM 37.0 °F 32.4 °F 27.0 °F 67% 30.29 in 10.0 mi SE 5.8 mph - N/A   Clear
10:53 PM 39.0 °F 34.0 °F 28.0 °F 65% 30.27 in 10.0 mi ESE 6.9 mph - N/A   Clear
11:53 PM 37.9 °F 34.4 °F 27.0 °F 65% 30.27 in 10.0 mi ESE 4.6 mph - N/A   Clear